User: anonymous   Login
Location: Unspecified
(0.0000°N, 0.0000°E)
Time: 03:21:37
(UTC+00:00)
Language:

OFEQ 10 - Orbit

View from above orbital plane
View from above orbital plane
View from above satellite
View from above satellite

Ground track
Ground track

The orbit data is extracted from the following two-line orbital elements,

1 39650U 14019A   19119.06250930 0.00000500  00000-0  24808-4 0    08
2 39650 140.9097  20.7381 0003996  42.7530 317.2463 15.16856671    06
Epoch (UTC): 29 April 2019 01:30:00
Eccentricity: 0.0003996
inclination: 140.9097°
perigee height: 512 km
apogee height: 518 km
right ascension of ascending node: 20.7381°
argument of perigee: 42.7530°
revolutions per day: 15.16856671
mean anomaly at epoch: 317.2463°
orbit number at epoch: 0

The dashed part of the orbit path shows where the satellite is in the earth's shadow,  

DLR